Wind_Speed
13 11 8 8 8 14 24 43 46 45 42 38 40 41 41 43 45 46 46 49 52 55 57 60 62 64 64 66 69 70 70 71 66 62 58 56 56 56 59 59 58 58 58
20 20 16 11 12 10 11 14 21 33 47 56 54 52 51 52 51 54 56 56 59 60 63 63 66 67 66 63 62 52 44 44 40 40 50 53 50 51 44 42 40 42 41
22 21 21 22 18 17 11 13 13 12 14 16 21 31 41 47 51 54 59 59 58 49 39 34 34 31 32 32 33 35 35 37 35 33 36 39 42 44 46 46 48 48 48
30 27 24 22 21 22 18 17 18 19 18 18 18 20 23 24 25 26 26 27 27 28 29 32 35 36 38 39 40 40 41 41 41 41 41 47 50 51 50 54 54 55 56
33 31 30 28 22 23 25 26 26 22 22 22 25 26 27 28 27 27 30 32 34 35 35 36 37 40 40 40 40 42 43 44 44 45 46 48 50 54 57 60 58 60 60
38 38 36 32 30 29 31 32 30 28 27 29 28 27 29 32 33 35 37 39 40 41 42 43 45 45 46 45 46 47 49 49 48 47 47 50 54 58 60 61 63 62 62
41 40 39 36 36 36 37 38 37 36 38 36 36 37 37 36 38 41 41 42 43 44 44 46 47 50 54 55 56 55 58 58 52 51 54 57 60 64 67 69 69 71 71
42 42 40 38 37 37 38 40 43 43 44 44 44 44 45 43 46 47 47 47 48 50 52 53 52 55 56 59 61 62 66 65 63 62 64 69 71 67 74 76 75 77 76
46 45 45 45 44 45 46 46 48 49 50 53 52 51 51 49 52 53 55 55 54 55 55 58 61 60 61 62 61 61 67 69 67 70 74 71 69 70 75 74 76 83 79
48 50 51 52 52 53 53 54 54 55 56 57 57 58 58 58 57 58 59 59 60 61 62 63 63 66 68 63 63 67 69 69 73 79 80 79 79 79 73 76 80 79 84
58 56 57 56 56 57 58 59 61 61 63 63 64 63 64 65 65 65 64 66 67 68 68 68 69 72 75 71 69 73 77 77 78 83 85 90 87 83 91 96 96 89 90
56 56 57 57 57 58 59 62 63 65 66 67 68 68 69 70 70 69 68 69 71 73 73 76 78 78 77 77 79 82 83 84 85 87 86 90 93 96 95 94 94 96 100
60 61 62 63 64 66 67 67 67 68 68 69 72 72 71 70 70 70 72 74 77 79 81 81 80 80 83 85 87 90 91 91 93 96 97 97 99 102 103 102 104 107 111
66 67 67 67 67 69 70 70 71 73 72 71 71 71 73 75 76 79 80 82 84 85 87 87 88 89 92 95 95 94 93 97 101 103 103 105 108 109 110 113 116 118 119
70 72 72 72 74 73 73 74 73 77 78 80 80 80 82 83 83 86 88 90 93 94 94 96 97 100 104 99 99 100 100 104 108 111 112 114 117 119 121 123 125 126 126
81 80 82 79 78 78 78 80 81 79 81 83 87 91 91 93 95 94 94 93 95 98 100 101 106 107 108 110 109 108 109 111 114 117 120 124 126 127 131 134 134 132 130
84 84 83 84 85 85 86 87 88 88 90 90 93 94 98 96 96 98 99 101 102 103 105 113 112 113 111 112 117 119 120 122 122 123 127 128 128 125 126 124 123 123 126
90 89 89 90 91 92 94 95 96 96 99 99 98 99 96 97 100 102 106 107 110 113 116 113 118 119 122 120 118 119 121 121 121 122 123 123 123 123 123 123 122 123 121
97 100 101 101 100 102 101 102 102 104 105 104 105 106 106 107 107 110 113 117 118 118 118 119 122 119 114 118 120 119 120 120 118 116 113 112 112 113 112 111 111 111 113
103 106 109 110 107 107 107 107 109 112 110 111 111 115 115 117 119 119 119 111 118 118 120 121 117 117 117 118 116 112 111 108 107 104 101 100 99 100 101 101 101 101 100
111 108 105 106 110 114 116 115 113 111 117 119 120 117 118 120 121 117 113 113 115 116 115 117 117 115 113 109 106 104 100 99 100 98 96 96 96 96 96 96 96 95 95
113 114 113 111 113 115 116 117 120 123 120 115 117 112 110 110 112 113 115 116 117 116 115 112 109 106 105 102 98 97 97 97 97 96 95 94 93 94 94 94 93 92 91
116 117 119 120 121 122 122 119 116 115 115 114 114 115 116 117 116 116 115 114 112 109 108 105 103 100 98 97 97 96 95 94 93 92 91 90 88 86 85 85 84 84 84
121 121 120 120 118 117 116 115 115 116 117 117 117 116 115 114 113 111 108 105 103 101 99 98 98 97 95 93 92 90 89 87 86 85 84 84 83 83 82 82 82 82 82
113 113 112 112 113 114 115 115 114 113 113 113 111 110 108 105 103 102 100 98 96 96 95 94 93 91 89 88 87 87 86 85 84 83 82 81 80 80 79 79 77 77 76
105 106 106 107 107 107 107 107 107 106 104 101 100 99 98 97 96 95 94 93 92 90 89 89 88 87 85 84 82 81 79 78 77 75 74 74 73 73 73 73 72 72 72
Wind_Direction
251 241 224 197 179 198 222 226 225 229 234 240 247 247 250 254 255 257 259 261 262 264 267 270 272 273 274 275 274 275 275 277 278 281 283 285 285 286 287 287 287 284 284
240 246 241 225 215 185 199 203 220 235 242 244 244 246 245 248 250 255 257 260 261 263 266 269 270 271 272 274 276 280 281 282 285 285 285 283 286 286 286 285 286 285 289
248 234 238 238 233 230 231 227 218 228 233 231 237 244 249 251 256 256 257 259 264 268 266 270 274 275 281 285 286 289 288 291 291 291 289 288 290 288 286 287 285 287 288
248 243 253 250 245 239 244 254 263 274 262 252 256 262 255 252 253 253 255 259 266 276 282 283 285 286 285 285 285 286 288 288 286 286 282 281 285 285 287 286 288 287 284
239 244 244 247 248 243 247 254 258 254 257 263 265 271 267 265 266 268 273 277 277 277 276 278 285 284 280 282 284 284 284 285 285 286 284 281 284 288 289 288 289 285 285
237 240 245 249 250 251 253 256 255 255 257 259 259 265 266 267 272 272 272 272 272 273 276 275 279 281 280 283 283 284 285 284 280 280 282 278 280 285 288 288 284 278 283
240 243 246 251 254 256 257 255 256 260 263 264 267 271 271 273 269 270 270 272 274 276 272 278 282 283 282 281 280 282 284 282 277 276 284 284 282 281 281 281 282 281 281
239 241 245 247 253 258 258 256 256 259 261 263 267 268 269 271 269 271 273 273 274 273 272 275 279 279 279 280 281 282 284 284 282 280 280 286 286 284 281 280 279 282 280
245 244 247 250 253 256 259 260 260 260 262 264 265 266 266 267 269 271 271 272 271 270 270 272 274 279 284 282 280 281 283 284 284 280 286 287 287 283 281 278 279 279 279
245 250 254 258 259 261 262 263 264 265 265 265 267 270 271 272 273 273 273 274 275 273 272 274 275 278 282 281 276 285 283 288 284 284 286 286 289 288 280 284 289 284 284
244 249 253 256 258 260 261 261 262 262 264 266 268 269 271 273 274 274 274 273 273 275 276 278 279 281 284 281 281 287 287 285 286 287 284 288 291 290 289 290 288 287 284
249 254 257 257 257 260 262 264 265 267 269 270 270 271 272 273 275 275 275 275 278 280 280 282 282 281 281 281 281 285 287 283 283 287 286 284 286 286 288 287 286 284 286
251 253 255 258 262 265 267 267 268 269 270 272 273 273 273 272 272 272 273 276 277 277 277 278 278 280 280 281 279 281 285 283 283 284 285 285 283 284 284 286 286 286 286
248 252 255 257 260 261 264 267 269 270 270 270 271 273 273 273 274 276 277 277 277 276 278 278 281 284 286 283 279 281 282 281 281 283 283 283 283 282 282 283 284 285 285
253 255 256 257 259 261 262 265 267 270 271 271 268 269 271 273 273 273 273 275 275 277 280 282 285 286 288 285 283 284 283 282 281 281 282 282 283 281 280 281 282 283 283
256 254 259 261 262 265 266 268 270 270 272 273 272 270 272 274 274 275 277 276 277 277 278 281 284 286 286 285 286 284 282 282 281 280 279 279 280 281 281 282 281 281 281
258 263 266 267 270 270 269 270 271 273 278 275 275 278 277 272 273 274 276 277 278 281 282 284 286 288 287 287 286 283 280 281 281 281 280 282 282 280 280 280 280 281 282
262 265 266 267 267 269 271 271 270 273 278 277 276 278 278 275 275 278 279 281 282 283 286 286 288 288 287 285 284 283 282 282 282 282 282 282 282 282 281 281 280 281 282
263 264 267 268 269 270 270 270 272 275 277 277 278 280 279 278 279 280 281 283 284 285 285 285 286 287 286 287 286 285 284 284 284 284 283 282 282 282 282 281 281 281 281
265 267 268 270 270 271 274 273 273 275 276 277 279 281 280 279 280 282 286 283 287 284 285 287 288 288 287 286 286 286 285 283 283 284 283 283 282 282 282 282 281 282 282
268 270 271 272 272 272 274 276 276 276 278 278 281 280 281 283 284 283 283 284 287 288 288 287 287 287 287 286 285 285 284 283 283 283 284 284 283 282 282 282 283 283 283
269 268 270 271 272 273 274 275 277 278 280 281 283 283 283 283 285 286 286 287 286 286 287 286 285 284 285 285 284 284 284 283 283 283 283 283 283 282 282 283 284 284 285
268 269 270 271 273 276 277 278 279 281 282 281 282 284 285 285 285 285 286 285 285 285 284 284 284 285 285 285 285 286 286 286 286 286 285 286 286 286 286 286 286 287 286
269 271 272 273 274 275 277 278 278 280 282 282 283 283 284 284 284 284 284 283 283 284 284 284 285 285 286 287 288 288 288 288 287 287 286 286 286 285 285 285 285 286 286
269 271 272 273 275 276 278 278 279 280 280 281 281 281 282 281 281 281 282 282 283 284 285 286 287 287 288 288 289 289 288 287 287 286 285 285 285 285 285 285 285 286 286
271 272 273 274 275 276 277 277 277 278 278 278 279 279 280 280 281 282 283 285 286 287 287 288 289 289 288 288 287 287 287 287 286 286 285 285 285 285 285 286 287 287 287
Height
10548 10550 10552 10554 10555 10557 10561 10566 10569 10572 10576 10579 10581 10583 10584 10586 10587 10588 10589 10593 10593 10594 10594 10593 10591 10590 10591 10590 10588 10587 10585 10582 10583 10576 10570 10567 10566 10564 10561 10558 10556 10554 10551
10543 10544 10547 10549 10551 10552 10554 10557 10560 10563 10566 10569 10571 10573 10576 10577 10579 10580 10580 10581 10581 10582 10583 10582 10579 10579 10576 10573 10572 10570 10568 10566 10568 10566 10557 10555 10554 10550 10548 10546 10544 10541 10538
10536 10539 10541 10543 10545 10548 10550 10552 10553 10555 10557 10558 10559 10561 10563 10565 10566 10568 10569 10571 10572 10570 10569 10567 10565 10565 10562 10560 10558 10557 10556 10555 10554 10555 10550 10543 10541 10538 10536 10534 10530 10528 10526
10530 10534 10536 10538 10539 10542 10545 10547 10548 10549 10550 10552 10553 10555 10555 10556 10557 10558 10559 10560 10560 10559 10557 10555 10553 10552 10549 10547 10547 10545 10543 10543 10541 10541 10540 10535 10530 10524 10524 10519 10518 10515 10513
10522 10525 10527 10530 10532 10535 10537 10538 10540 10542 10543 10544 10544 10545 10546 10546 10548 10549 10550 10549 10548 10546 10545 10543 10542 10541 10539 10538 10538 10535 10533 10531 10529 10528 10527 10525 10520 10513 10509 10506 10507 10500 10497
10513 10516 10519 10522 10524 10526 10527 10529 10531 10532 10533 10533 10535 10536 10537 10537 10539 10540 10539 10538 10537 10535 10533 10533 10531 10531 10528 10526 10524 10521 10518 10516 10514 10512 10512 10510 10507 10504 10498 10494 10490 10486 10486
10505 10507 10511 10513 10514 10516 10518 10519 10521 10522 10523 10524 10525 10526 10526 10528 10529 10526 10526 10527 10526 10523 10521 10519 10517 10516 10514 10511 10508 10505 10501 10498 10501 10500 10497 10492 10492 10487 10481 10475 10468 10465 10463
10494 10497 10500 10502 10504 10505 10508 10509 10510 10510 10511 10512 10513 10513 10513 10516 10513 10513 10513 10513 10512 10509 10506 10505 10505 10501 10497 10494 10491 10488 10482 10481 10484 10479 10475 10475 10471 10469 10459 10454 10448 10442 10439
10483 10487 10489 10492 10494 10495 10496 10497 10497 10497 10498 10498 10498 10499 10500 10501 10499 10498 10497 10496 10495 10493 10491 10490 10488 10486 10482 10478 10476 10471 10464 10463 10464 10457 10450 10449 10450 10447 10440 10432 10427 10420 10415
10473 10475 10477 10478 10479 10481 10481 10482 10482 10482 10483 10484 10483 10482 10483 10483 10483 10481 10479 10477 10476 10474 10473 10472 10472 10469 10467 10463 10458 10453 10447 10443 10438 10434 10429 10422 10420 10418 10417 10412 10406 10400 10394
10460 10461 10463 10464 10464 10465 10465 10466 10467 10467 10466 10466 10467 10467 10466 10464 10464 10463 10461 10457 10455 10453 10452 10451 10451 10450 10447 10443 10438 10432 10424 10420 10415 10409 10404 10397 10393 10390 10384 10380 10376 10373 10366
10446 10447 10448 10449 10449 10450 10449 10449 10449 10449 10449 10449 10448 10447 10447 10445 10444 10443 10441 10438 10435 10431 10430 10428 10427 10427 10425 10421 10416 10409 10405 10398 10392 10387 10381 10375 10366 10361 10361 10356 10353 10348 10341
10430 10431 10433 10434 10434 10434 10434 10433 10433 10432 10431 10430 10429 10428 10427 10426 10426 10424 10421 10419 10416 10411 10408 10405 10403 10402 10400 10398 10392 10386 10380 10374 10367 10362 10356 10350 10344 10337 10331 10325 10321 10318 10312
10413 10415 10416 10417 10417 10417 10418 10417 10416 10415 10413 10412 10411 10409 10407 10407 10405 10402 10400 10397 10394 10390 10386 10382 10380 10376 10373 10369 10365 10360 10353 10347 10342 10336 10328 10322 10315 10308 10302 10296 10291 10287 10280
10396 10398 10398 10398 10399 10398 10398 10398 10397 10396 10395 10393 10391 10389 10387 10385 10384 10381 10377 10374 10370 10366 10361 10356 10352 10347 10342 10336 10331 10326 10320 10315 10309 10303 10296 10289 10282 10275 10269 10263 10256 10251 10244
10378 10379 10379 10379 10379 10377 10376 10376 10375 10374 10373 10371 10369 10366 10364 10362 10359 10356 10352 10347 10343 10339 10334 10328 10323 10316 10311 10305 10299 10293 10287 10281 10275 10268 10261 10254 10246 10238 10230 10223 10214 10208 10202
10357 10357 10357 10357 10356 10355 10353 10352 10351 10350 10348 10346 10344 10341 10338 10336 10332 10329 10324 10319 10315 10310 10304 10297 10289 10282 10275 10268 10263 10255 10248 10241 10234 10227 10218 10211 10204 10196 10188 10180 10173 10166 10161
10337 10336 10335 10335 10334 10333 10332 10329 10327 10325 10323 10320 10317 10314 10310 10306 10302 10297 10292 10287 10282 10276 10270 10260 10254 10246 10239 10230 10222 10215 10207 10199 10192 10184 10176 10168 10160 10153 10147 10140 10133 10127 10123
10313 10313 10312 10311 10309 10308 10305 10303 10302 10300 10296 10292 10288 10285 10281 10276 10271 10265 10260 10255 10247 10240 10234 10225 10217 10208 10200 10192 10184 10174 10166 10158 10152 10144 10136 10129 10122 10115 10109 10102 10097 10091 10087
10288 10286 10284 10283 10281 10280 10277 10274 10272 10270 10268 10264 10260 10257 10251 10245 10238 10231 10225 10216 10210 10202 10196 10187 10178 10170 10163 10155 10146 10138 10130 10121 10115 10109 10102 10096 10089 10083 10077 10070 10064 10059 10053
10259 10257 10255 10253 10252 10249 10248 10246 10243 10237 10235 10230 10227 10220 10215 10209 10201 10193 10187 10179 10171 10164 10157 10150 10142 10134 10127 10119 10111 10104 10097 10089 10082 10076 10070 10064 10058 10052 10046 10040 10036 10030 10024
10232 10230 10227 10224 10222 10220 10217 10213 10210 10207 10199 10193 10189 10183 10175 10169 10163 10157 10151 10144 10137 10130 10123 10115 10107 10099 10092 10085 10078 10071 10065 10058 10053 10047 10042 10035 10029 10024 10018 10012 10007 10001 9995
10203 10200 10197 10194 10191 10188 10183 10178 10173 10168 10165 10158 10152 10146 10140 10134 10129 10123 10118 10111 10103 10095 10088 10081 10073 10067 10061 10055 10048 10042 10036 10031 10025 10019 10012 10006 10001 9996 9990 9984 9979 9973 9968
10172 10169 10165 10161 10158 10154 10149 10144 10138 10134 10129 10124 10119 10114 10108 10102 10097 10091 10084 10076 10069 10062 10056 10049 10042 10036 10031 10025 10019 10013 10008 10002 9996 9990 9985 9979 9973 9968 9963 9957 9952 9947 9941
10139 10136 10132 10128 10124 10120 10116 10111 10106 10101 10097 10093 10088 10084 10077 10070 10063 10057 10050 10043 10038 10032 10025 10019 10014 10008 10001 9996 9991 9985 9979 9974 9968 9963 9957 9952 9947 9941 9936 9930 9926 9921 9916
10106 10103 10100 10097 10093 10090 10086 10081 10076 10072 10067 10062 10056 10050 10044 10037 10031 10025 10019 10013 10006 10000 9996 9991 9986 9981 9975 9969 9963 9957 9952 9947 9941 9937 9931 9927 9921 9916 9911 9906 9902 9897 9893